Location: Tarleton Observatory
(32.2162°N, 98.0976°W)
Time: 14:28:47
(UTC-05:00)

Daily predictions for brighter satellites

Satellite Brightness Start Highest point End
(mag) Time Altitude Azimuth Time Altitude Azimuth Time Altitude Azimuth
Meteor 1-18 Rocket 4.4 20:46:20 10° S 20:52:06 64° E 20:57:56 10° NNE
Cosmos 468 Rocket 4.1 20:47:55 10° S 20:53:05 58° ESE 20:58:14 10° NNE
Cosmos 1763 Rocket 4.1 20:51:02 10° SSE 20:55:51 36° E 21:00:39 10° NE
Tiangong 2 4.0 20:54:19 10° NW 20:56:15 15° NNW 20:58:11 10° NNE
CZ-2D R/B 3.3 20:54:15 10° SSE 20:58:06 82° E 21:02:00 10° N
Cosmos 1939 Rocket 3.5 20:56:57 10° SE 21:00:46 39° ENE 21:04:39 10° N
Cosmos 841 Rocket 4.4 20:58:58 10° SSE 21:03:23 28° E 21:07:50 10° NE
SL-16 R/B 3.3 20:58:46 10° N 21:03:39 29° ENE 21:08:31 10° ESE
Cosmos 2233 Rocket 4.2 20:59:57 10° SSE 21:05:48 50° E 21:11:44 10° NNE
Cosmos 1300 Rocket 3.7 21:03:01 10° N 21:07:21 77° W 21:11:39 10° S
ATLAS CENTAUR R/B 3.6 21:06:31 10° SW 21:11:22 85° NW 21:25:51 10° NE
Resurs 01 Rocket 2.1 21:09:04 10° SE 21:13:11 41° ENE 21:17:20 10° N
Delta 168 4.4 21:11:07 10° WSW 21:14:13 20° SSW 21:16:44 10° SSE
Cosmos 1340 Rocket 4.4 21:11:33 10° SE 21:14:16 18° E 21:17:02 10° NE
DELTA 2 R/B (1) 4.2 21:13:06 10° SSW 21:17:59 32° SE 21:22:53 10° E
USA 234 3.3 21:13:12 10° NE 21:19:40 60° SE 21:26:07 10° SSW
Chunghua 1 4.4 21:18:35 10° WSW 21:22:18 84° SSE 21:26:03 10° ENE
NOSS 3-2 (C) 4.4 21:17:12 10° SW 21:22:50 50° NW 21:28:59 10° NNE
Delta 7925 Rocket 3.9 21:22:52 10° WSW 21:27:27 38° S 21:30:37 17° SE
ERS-2 2.1 21:24:38 10° SSE 21:28:14 68° ENE 21:31:54 10° N
CENTAUR R/B 2.3 21:29:24 10° SSW 21:35:07 85° ESE 21:41:39 10° NNE
SAR-Lupe-3 4.5 21:34:17 10° NNE 21:37:51 64° ESE 21:41:24 10° S
GPS 2-04 Rocket1 4.3 21:35:18 10° W 21:38:45 25° SSW 21:41:12 15° SSE
Cosmos 1666 2.6 21:36:00 10° N 21:39:53 79° E 21:43:04 15° S
Cosmos 2360 Rocket 3.5 21:36:34 10° N 21:41:03 24° ENE 21:43:55 16° E
Cosmos 1356 4.4 21:40:33 24° ESE 21:41:30 28° E 21:44:31 10° NNE
Cosmos 1980 Rocket 3.7 21:38:39 10° NW 21:43:44 34° WSW 21:48:48 10° SSW
Cosmos 1814 Rocket 4.2 21:40:07 10° SSW 21:45:20 77° WNW 21:50:39 10° NNE
Skynet4D Del rocket 4.4 21:39:21 10° SW 21:45:31 39° SSE 21:49:03 20° ESE
Cosmos 1898 Rocket 3.5 21:42:25 10° NNW 21:47:45 87° ENE 21:51:54 17° SSE
Aureole 2 Rocket 3.4 21:49:20 10° NNE 21:51:29 21° ENE 21:51:29 21° ENE
Resurs 1-3 4.1 21:48:18 10° S 21:52:36 59° W 21:56:56 10° NNW
Cosmos 1975 3.5 21:49:27 10° NNW 21:53:22 54° W 21:57:09 11° S
Atlas Centaur 2 2.1 21:50:45 10° W 21:54:26 33° SSW 21:55:30 27° SSE
Iridium 2 3.6 21:52:04 14° S 21:55:16 90° NW 21:59:06 10° N
Cosmos 990 Rocket 3.9 21:51:43 10° NNW 21:56:57 75° ENE 22:00:07 24° SSE
Meteor 2-9 Rocket 4.2 21:52:31 10° N 21:57:49 57° E 22:00:55 25° SSE
Cosmos 1743 3.1 21:54:21 10° NNW 21:58:07 62° W 22:00:55 17° S
H-2A R/B 2.9 21:57:46 25° ESE 21:59:33 32° ENE 22:03:59 10° N
Cosmos 1455 Rocket 3.4 21:55:49 10° N 22:00:01 45° E 22:01:30 32° SE
Cosmos 1464 Rocket 4.1 21:54:42 14° SSE 22:00:05 58° E 22:06:20 10° NNE
GPS 2-05 Rocket1 2.8 21:57:08 10° W 22:00:25 72° NNW 22:02:11 25° ENE
Cosmos 1975 Rocket 4.4 22:02:40 10° SSW 22:06:43 39° W 22:10:47 10° N
BREEZE-M DEB (TANK) 2.6 22:04:51 10° NW 22:07:23 79° NE 22:08:59 36° SE
Cosmos 2333 Rocket 4.4 22:12:33 10° NE 22:13:57 11° NE 22:15:22 10° ENE
Meteor 1-23 Rocket 4.1 22:12:40 24° S 22:16:07 67° E 22:21:38 10° NNE
COSMOS 2428 4.3 22:13:15 10° NNE 22:17:14 19° ENE 22:18:42 18° E
Meteor 2-20 4.4 22:11:31 10° N 22:17:41 88° E 22:21:27 25° S
Cosmos 1891 Rocket 4.4 22:13:28 20° S 22:17:52 73° E 22:24:11 10° N
Cosmos 1242 Rocket 4.2 22:15:39 10° NNW 22:18:53 31° W 22:21:00 17° SW
Cosmos 1515 3.5 22:19:18 50° S 22:20:14 83° E 22:24:05 10° N
ARGOS 3.1 22:19:05 36° SSE 22:21:21 73° ENE 22:26:45 10° N
Terra 4.0 22:21:33 12° ENE 22:21:37 12° ENE 22:23:17 10° NE
Meteor 2-20 Rocket 4.4 22:16:42 10° N 22:22:51 74° E 22:25:43 34° SSE
Meteor 2-4 Rocket 4.2 22:17:35 10° SSW 22:22:53 57° W 22:28:21 10° N
Cosmos 540 Rocket 3.5 22:18:12 10° SSW 22:23:21 80° WNW 22:28:33 10° NNE
Helios 1B rocket 4.2 22:22:49 10° NE 22:24:34 19° ENE 22:24:34 19° ENE
Shenzhou-11 Module 3.3 22:23:35 10° NW 22:26:08 32° NNE 22:26:08 32° NNE
SPOT 5 3.9 22:26:23 26° ENE 22:26:25 26° ENE 22:30:09 10° NNE
Cosmos 1544 Rocket 3.6 22:23:13 10° N 22:27:40 80° W 22:29:02 44° S
DMSP B5D2-2 4.2 22:23:45 10° NNE 22:28:53 50° E 22:29:45 46° SE
Cosmos 2150 Rocket 4.1 22:26:15 10° NNW 22:31:36 74° WSW 22:33:32 39° S
Lacrosse 5 rocket 2.2 22:28:54 10° NNW 22:32:49 35° NE 22:33:08 35° ENE
Tiangong 2 4.0 22:32:19 10° NNW 22:33:51 13° N 22:35:15 10° NNE
SJ 16-02 1.8 22:31:23 10° N 22:35:37 45° ENE 22:35:37 45° ENE
Cosmos 2322 Rocket 3.1 22:31:32 10° NW 22:36:45 41° WSW 22:39:40 23° SSW
Cosmos 2322 3.9 22:33:28 10° N 22:39:06 55° ENE 22:40:13 47° ESE
Cosmos 1536 Rocket 3.9 22:38:24 35° SSW 22:40:07 62° W 22:44:32 10° N
Cosmos 1066 Rocket 4.3 22:44:56 50° E 22:45:01 50° E 22:50:15 10° NNE
Mugunghwa Rocket 4.4 22:38:10 10° W 22:45:12 57° S 22:47:19 44° SE
MetOp-B 4.1 22:44:15 48° S 22:45:48 79° WSW 22:51:10 10° NNW
SL-16 R/B 3.6 22:42:44 10° NW 22:47:39 31° WSW 22:50:36 19° SSW
Resurs 01 Rocket 4.3 22:47:45 10° WSW 22:49:48 13° W 22:51:51 10° WNW
Cosmos 372 Rocket 3.8 22:52:50 10° NNW 22:57:56 71° ENE 22:58:00 71° E
Cosmos 2219 3.1 23:02:07 67° S 23:02:55 82° ESE 23:08:42 10° NNE
SL-08 RB Rocket 4.3 23:02:35 46° WSW 23:03:00 48° W 23:07:25 10° NNW
DELTA 2 R/B (1) 3.7 22:58:38 10° WSW 23:04:10 74° NNW 23:07:30 25° ENE
CZ-4C R/B 3.5 22:59:00 10° NNW 23:06:11 48° NE 23:08:19 40° E
ERS-1 Rocket 3.2 23:07:39 58° SW 23:08:06 60° W 23:13:05 10° NNW
Cosmos 1092 Rocket 4.0 23:04:30 10° N 23:10:47 61° E 23:11:07 60° E
Cosmos 2237 4.1 23:05:04 10° NNW 23:10:48 78° WSW 23:11:15 73° SSW
Nadezhda 4 Rocket 3.9 23:04:54 10° N 23:11:15 87° W 23:12:19 64° S
Cosmos 1025 Rocket 3.8 23:17:05 50° WNW 23:17:05 50° WNW 23:20:58 10° N
CZ-2C R/B 3.9 23:15:35 10° NNE 23:18:57 30° ENE 23:18:57 30° ENE
Cosmos 2360 Rocket 3.1 23:19:55 10° NW 23:25:05 38° WSW 23:25:42 37° WSW
Cosmos 2219 Rocket 2.6 23:22:32 10° N 23:27:26 52° NE 23:27:26 52° NE
CZ-2C R/B 3.8 23:32:01 46° NE 23:32:01 46° NE 23:36:35 10° N
Cosmos 2333 4.2 23:27:09 10° NNW 23:32:26 77° NW 23:32:26 77° NW
SPOT 1/Viking Rocket 4.0 23:35:50 54° W 23:35:50 54° W 23:40:28 10° NNW
Cosmos 2279 Rocket 4.3 23:37:52 52° ENE 23:37:52 52° ENE 23:43:00 10° NNE
Cosmos 2026 Rocket 4.2 23:31:46 10° N 23:37:10 58° NE 23:37:10 58° NE
H-2A R/B 3.8 23:38:23 21° WSW 23:38:58 22° W 23:42:46 10° NW
Cosmos 1125 Rocket 4.4 23:38:04 10° NNW 23:42:26 42° W 23:42:26 42° W
